FLOCK 2P-9

Last updated on Wed Feb 14 2018 16:19:49 GMT+0000 (Coordinated Universal Time)

1 41610U 16040M 18044.90878472 .00001078 00000-0 47516-4 0 9998 2 41610 97.4292 110.4887 0009274 311.9609 48.0837 15.23927917 91294

Satellite not in orbit

FLOCK 2P-9